Regional Weather Roundup
Issued by NWS Little Rock, AR

Home | Current Version | Previous Version | Text Only | Print | Product List | Glossary On
Versions: 1 2 3 4 5 6 7 8 9 10 11 12 13 14 15 16 17 18 19 20 21 22 23 24 25 26 27 28 29 30 31 32 33 34 35 36 37 38 39 40 41 42 43 44 45 46 47 48 49 50
000
ASUS44 KLZK 260405
RWRLZK

WEATHER ROUNDUP FOR ARKANSAS
NATIONAL WEATHER SERVICE LITTLE ROCK AR
1100 PM CDT WED APR 25 2018

NOTE: "FAIR" INDICATES FEW OR NO CLOUDS BELOW 12,000 FEET WITH NO
SIGNIFICANT WEATHER AND/OR OBSTRUCTIONS TO VISIBILITY.

ARZ001-003-010-029-260500-
NORTHWEST ARKANSAS

CITY           SKY/WX    TMP DP  RH WIND       PRES   REMARKS
FAYETTEVILLE   CLOUDY    49  49 100 W6        29.98F
FORT SMITH     CLOUDY    52  50  93 W12       30.00F
HARRISON       LGT RAIN  50  50 100 CALM      29.97F FOG
BENTONVILLE    LGT RAIN  50  49  96 W8        30.00F
ROGERS         LGT RAIN  50  49  96 W7        29.98F
SILOAM SPGS    CLOUDY    49  49 100 NW12      29.99F
HIGHFILL       LGT RAIN  50  47  89 NW8       29.98F
$$

ARZ004-005-016-260500-
NORTH CENTRAL ARKANSAS

CITY           SKY/WX    TMP DP  RH WIND       PRES   REMARKS
BATESVILLE     LGT RAIN  53  52  96 W3        29.96F FOG
FLIPPIN        CLOUDY    53  52  96 CALM      29.98S
MTN HOME       CLOUDY    52  52 100 CALM      29.96F FOG
$$

ARZ040-041-260500-
WEST CENTRAL ARKANSAS

CITY           SKY/WX    TMP DP  RH WIND       PRES   REMARKS
MENA           CLOUDY    52  52 100 W10       30.00F
MOUNT IDA      CLOUDY    52  51  97 N3        29.95F
$$

ARZ009-017-025-026-028-260500-
NORTHEAST ARKANSAS

CITY           SKY/WX    TMP DP  RH WIND       PRES   REMARKS
CORNING        CLOUDY    57  54  88 NW5       29.94F
JONESBORO      LGT RAIN  55  54  96 N5        29.93F
NEWPORT        LGT RAIN  54  53  97 N9        29.94F
WALNUT RIDGE   LGT RAIN  55  53  93 N7        29.94F
BLYTHEVILLE    LGT RAIN  57  53  86 CALM      29.94F
$$

ARZ022-023-033-042-044-260500-
CENTRAL ARKANSAS

CITY           SKY/WX    TMP DP  RH WIND       PRES   REMARKS
LITTLE ROCK    LGT RAIN  54  54 100 CALM      29.95F FOG
N LITTLE ROCK    N/A     52  51  99 NE5       29.91F
JACKSONVILLE   RAIN      54  54 100 N3        29.94F FOG
CONWAY         CLOUDY    54  54 100 CALM      29.95F FOG
SEARCY         LGT RAIN  55  55 100 N3        29.95F
HOT SPRINGS    CLOUDY    54  53  97 NW5       29.96F
RUSSELLVILLE   LGT RAIN  55  55 100 CALM      29.95F FOG
CLINTON        CLOUDY    54  52  94 CALM      29.97F FOG
$$

ARZ036-260500-
EAST ARKANSAS

CITY           SKY/WX    TMP DP  RH WIND       PRES   REMARKS
WEST MEMPHIS   LGT RAIN  57  53  86 SE7       29.89F
$$

ARZ050-053-066-070-073-260500-
SOUTHWEST ARKANSAS

CITY           SKY/WX    TMP DP  RH WIND       PRES   REMARKS
ARKADELPHIA    LGT RAIN  56  56 100 W6        29.97F
CAMDEN         CLOUDY    57  54  88 W7        29.96F
TEXARKANA      CLOUDY    53  51  93 NW12      30.02S
EL DORADO      LGT RAIN  57  32  38 W7        29.97F
DE QUEEN       CLOUDY    53  50  89 NW8       30.01F
$$

ARZ056-057-069-260500-
SOUTHEAST ARKANSAS

CITY           SKY/WX    TMP DP  RH WIND       PRES   REMARKS
PINE BLUFF     RAIN      56  55  97 N7        29.93F FOG
STUTTGART      LGT RAIN  56  54  93 N12       29.94F
MONTICELLO     RAIN      59  57  93 VRB3      29.91F FOG

$$





USA.gov is the U.S. government's official web portal to all federal, state and local government web resources and services.